Regional Weather Roundup
Issued by NWS State College, PA

Home | Current Version | Previous Version | Graphics & Text | Print | Product List | Glossary On
Versions: 1 2 3 4 5 6 7 8 9 10 11 12 13 14 15 16 17 18 19 20 21 22 23 24 25 26 27 28 29 30 31 32 33 34 35 36 37 38 39 40 41 42 43 44 45 46 47 48 49 50
000
ASUS41 KCTP 241110
RWRCTP

REGIONAL WEATHER ROUNDUP
NATIONAL WEATHER SERVICE STATE COLLEGE PA
700 AM EDT SUN MAY 24 2015

Note: "fair" indicates few or no clouds below 12,000 feet with no
significant weather and/or obstructions to visibility.

* = STATION THAT DOES NOT REPORT PRECIPITATION /E.G. RAIN...SNOW...ETC/
    THUNDER OR FOG.

PAZ002>004-007>009-013>016-020>023-029>032-241200-
WESTERN PENNSYLVANIA

CITY           SKY/WX    TMP DP  RH WIND       PRES   REMARKS
ERIE           SUNNY     56  37  49 S9        30.31R
MEADVILLE      SUNNY     54  37  52 S6        30.34R
FRANKLIN*      SUNNY     46  37  71 S7        30.37R
NEW CASTLE     FAIR      46  45  97 CALM      30.37R
BEAVER COUNTY  NOT AVBL
BUTLER*        SUNNY     45  39  81 CALM      30.38R
PITTSBURGH INT SUNNY     50  42  74 CALM      30.35R
PITTSBURGH     SUNNY     51  40  65 S7        30.35R
INDIANA*       SUNNY     46  41  81 CALM      30.40R
LATROBE        SUNNY     46  45  93 CALM      30.39R
WASHINGTON CO* CLEAR     45  43  93 CALM      30.37S
$$

PAZ004>006-010>012-017>019-024>028-033>037-041-042-045-046-049>053-241200-
CENTRAL PENNSYLVANIA

CITY           SKY/WX    TMP DP  RH WIND       PRES   REMARKS
BRADFORD       SUNNY     40  35  83 CALM      30.36R
DUBOIS         SUNNY     48  35  60 CALM      30.36R
CLEARFIELD     SUNNY     39  37  92 CALM      30.38R
JOHNSTOWN      SUNNY     51  36  56 SW8       30.38R
ALTOONA        SUNNY     48  40  73 CALM      30.37S
STATE COLLEGE  SUNNY     45  37  76 CALM      30.37R
WILLIAMSPORT   SUNNY     43  38  82 N3        30.38R
SELINSGROVE    SUNNY     43  41  93 CALM      30.38R
FT INDIANTOWN  SUNNY     44  41  88 CALM      30.37S
CAPITAL CITY   SUNNY     49  43  80 SW3       30.38R
HARRISBURG     SUNNY     54  45  71 CALM      30.37R
YORK           SUNNY     47  44  90 CALM      30.38R
$$

PAZ038>040-043-044-047-048-054-055-060>062-067>071-241200-
EASTERN PENNSYLVANIA

CITY           SKY/WX    TMP DP  RH WIND       PRES   REMARKS
SCRANTON       SUNNY     45  37  73 CALM      30.35S
MOUNT POCONO   SUNNY     49  35  58 W5        30.35R
ALLENTOWN      SUNNY     45  39  79 CALM      30.37S
QUAKERTOWN*    SUNNY     45  39  81 CALM      30.38S
READING        SUNNY     49  43  80 CALM      30.37R
LANCASTER      SUNNY     47  43  86 CALM      30.37S
COATESVILLE    SUNNY     55  45  67 W3        30.39S
POTTSTOWN      SUNNY     48  43  82 NE3       30.39S
BLUE BELL      SUNNY     46  43  87 CALM      30.39R
DOYLESTOWN     SUNNY     47  40  76 CALM      30.37S
WILLOW GROVE   NOT AVBL
NORTH PHILA    SUNNY     54  45  71 CALM      30.40S
PHILADELPHIA   MOSUNNY   56  50  80 SW7       30.40S
$$



USA.gov is the U.S. government's official web portal to all federal, state and local government web resources and services.